Погода в Сан-Педро-Сула

Гондурас     15°30′21″N   88°01′38″W
темп.,
°C
ветер,
м/с
пор.,
м/с
влажн.,
%
обл.,
%
осадки,
мм/ч
давл.,
гПа
погр.,
м
28 сентября, вт
вт2800:00+21зсз119695 5.3 101417
03:00+21юз119680 0.6 101323
06:00+21зюз119669 0.6 101428
09:00+27юв117322 0.0 1015720
12:00+30св225942 0.1 10121271
15:00+29с44626 0.3 10101009
18:00+24с358235 0.4 1011154
21:00+23ссз229313 0.1 101346
29 сентября, ср
ср2900:00+22сз11945 0.1 101312
03:00+21юз229614 0.0 101223
06:00+21юз229551 0.0 101342
09:00+28ю226441 0.0 1014767
12:00+32всв22495 0.0 10111593
15:00+31с435410 0.3 10081220
18:00+24с35871 0.3 1010170
21:00+22сз11959 0.0 101327
30 сентября, чт
чт3000:00+22сз11941 0.0 101214
03:00+21юз22964 0.0 101123
06:00+21юз22946 0.0 101232
09:00+28ююв21635 0.0 1014781
12:00+31ссв215212 0.3 10111518
15:00+30с43576 0.4 10091153
18:00+24с34895 0.4 1011106
21:00+23ссз22957 0.8 101340
1 октября, пт
пт100:00+22ссз11957 1.3 101213
03:00+21юз11973 0.4 101121
06:00+21юз11961 0.4 101225
09:00+28ююв11675 0.0 1014745
12:00+31ссв225516 0.5 10111442
15:00+28с45699 0.9 1009677
18:00+24с358911 1.6 1011152
21:00+23ссз22936 0.3 101337
2 октября, сб
сб200:00+21зсз11962 3.1 101313
03:00+21юз11966 3.3 101213
06:00+21зюз119621 4.1 101333
09:00+25ю118239 0.6 1014402
12:00+31св215215 0.8 10111508
15:00+29с44633 0.4 1009933
18:00+24с258740 0.8 1011146
21:00+23сз22935 0.2 101334